Theta_e
287 286 286 285 284 283 283 282 282 282 281 281 281 280 279 279 280 279 279 280 280 280 279 279 279 279 278 279 279 278 279 279 278 278 279 279 279 279 279 280 280 280 281 281 282 282 283 283 284 284 284 284 284 284 284 283 283 283 283 283 283 283 283 284 284 282 281 282 283 283 282 282 282 282 282 282 282 282 281 281 282 282 282 282 282
287 286 285 284 283 282 282 281 281 281 280 280 279 278 278 279 278 278 278 278 277 277 277 277 277 277 277 277 278 277 278 278 278 277 277 277 277 277 278 278 278 279 280 280 281 281 282 282 282 283 283 283 283 283 283 283 283 283 283 282 282 282 282 283 283 282 281 282 282 282 282 282 282 282 282 282 281 281 281 282 282 282 282 282 281
286 285 285 283 283 282 281 281 280 280 279 279 278 278 278 278 277 277 276 276 276 276 276 276 276 276 276 276 277 277 277 277 276 276 275 275 275 275 276 276 276 277 278 278 279 279 280 280 281 281 281 281 281 282 282 282 282 282 282 282 281 281 281 282 282 282 281 282 281 281 282 282 283 282 281 281 281 281 281 281 281 281 281 281 281
285 284 284 283 282 281 281 280 280 279 279 278 278 277 277 277 276 276 275 275 275 275 275 276 276 276 276 276 276 276 275 275 274 274 274 274 274 274 275 275 275 276 276 276 277 277 278 278 279 280 280 281 281 280 281 281 281 281 281 281 281 280 281 281 281 281 281 281 282 282 282 281 282 283 282 281 281 281 281 281 281 281 281 281 281
284 283 283 282 282 281 280 279 279 279 278 277 277 277 276 276 275 275 274 274 274 275 275 275 275 275 275 274 274 274 274 274 273 273 273 273 273 274 274 274 274 275 276 276 276 277 277 278 278 278 279 280 280 279 279 279 280 280 280 280 280 280 280 280 280 281 281 281 282 282 283 282 282 282 281 282 281 281 281 281 281 281 281 281 281
284 283 283 282 281 280 279 279 278 278 278 277 276 276 276 275 274 274 274 274 274 274 274 274 274 274 273 273 273 273 273 273 273 272 273 273 273 273 273 273 273 274 275 276 276 277 277 277 277 277 278 278 278 278 278 278 279 279 279 279 279 279 279 279 280 280 280 280 280 281 282 283 283 282 281 281 281 281 281 280 280 280 280 280 280
284 283 282 281 280 279 279 278 278 278 277 276 276 276 276 274 274 273 273 273 274 274 274 274 274 273 271 271 272 272 272 272 272 272 272 272 272 272 272 272 272 273 274 275 275 276 276 276 276 276 276 277 277 277 277 277 277 278 278 278 278 279 279 279 279 279 280 279 280 280 280 281 281 281 281 281 282 281 281 280 280 280 280 280 280
283 283 282 281 280 279 278 278 277 277 276 276 276 276 275 274 273 273 273 273 273 273 273 273 273 271 270 270 271 271 271 271 272 272 272 272 272 271 271 271 271 272 273 273 273 274 274 274 275 275 275 275 275 275 275 275 276 276 277 277 277 278 278 278 279 279 279 279 279 279 279 279 279 280 280 280 281 281 280 280 280 280 280 280 280
283 283 282 281 280 279 278 278 277 277 276 275 276 275 275 274 273 272 272 272 273 273 273 272 271 270 270 270 270 271 271 271 271 271 271 271 270 269 269 270 270 271 271 272 272 272 272 272 272 272 272 273 273 273 274 274 274 274 275 276 276 277 277 278 278 278 279 279 279 279 279 279 279 279 279 279 279 279 280 280 280 280 280 279 280
283 283 282 281 280 279 278 278 277 276 275 275 275 275 274 273 273 272 272 271 272 272 272 271 270 269 269 270 270 270 271 271 270 270 270 269 268 268 268 269 269 269 269 270 270 270 270 270 270 269 270 271 271 271 272 272 273 273 273 274 274 275 276 277 277 278 278 278 279 279 279 279 279 278 278 279 279 279 279 280 280 280 280 280 280
283 283 282 281 280 279 278 278 277 276 275 274 274 274 274 273 272 272 271 271 271 272 271 270 269 269 269 269 269 270 270 270 269 269 268 268 267 268 268 268 268 268 268 269 269 268 269 269 268 268 268 269 269 269 269 270 270 271 271 272 272 273 274 275 276 277 277 278 278 278 279 279 279 279 279 279 279 279 279 279 280 280 280 280 280
284 284 283 281 280 279 278 278 277 275 274 274 274 274 273 272 272 271 271 270 270 271 270 269 268 268 268 269 269 269 269 268 268 268 267 267 267 267 267 268 267 267 267 267 267 267 267 267 267 266 266 266 266 267 267 268 268 269 269 270 270 271 272 273 275 276 276 277 277 278 278 278 279 279 279 279 279 279 280 280 280 281 280 280 280
284 284 282 281 280 279 278 277 276 275 274 273 273 273 273 272 271 270 270 270 269 270 269 268 268 268 268 268 269 269 269 268 267 267 266 266 266 266 267 267 267 267 267 266 266 266 265 265 265 265 265 265 265 265 266 266 266 267 268 268 268 269 270 272 273 274 275 276 276 277 278 278 278 278 279 279 279 279 279 279 280 280 280 280 280
284 283 282 280 279 278 277 277 276 275 274 272 272 273 272 271 271 270 270 270 268 268 268 267 267 267 267 268 268 268 268 267 267 266 266 265 265 266 266 266 266 266 266 266 265 265 265 264 264 264 264 264 264 265 265 265 265 265 266 266 267 268 269 270 271 271 272 273 274 276 277 277 278 278 278 279 279 279 279 279 279 279 279 280 279
284 282 281 279 278 278 277 276 275 274 273 272 272 272 272 271 270 270 270 269 268 267 267 267 267 267 267 267 268 268 267 267 267 266 265 265 265 265 265 265 265 265 265 265 264 264 263 264 264 264 264 264 264 264 264 264 264 264 265 266 267 268 268 269 270 270 271 271 272 273 275 276 277 277 278 278 278 279 279 279 279 279 279 279 279
284 282 281 279 278 277 276 275 274 273 273 271 271 272 271 270 270 270 269 268 267 267 266 266 266 266 266 267 267 267 267 267 266 265 264 264 264 264 264 264 264 264 264 263 263 263 263 263 262 262 263 263 263 263 263 263 263 263 264 266 267 267 268 268 269 270 270 271 272 273 274 275 276 277 277 277 278 278 278 279 279 279 279 279 279
283 282 280 279 277 276 275 275 273 272 272 271 270 271 270 269 270 269 269 268 267 267 266 265 265 266 266 266 267 267 267 266 265 264 263 263 263 263 263 263 263 263 263 263 262 262 262 262 262 262 262 262 262 262 262 262 262 263 263 265 265 266 266 267 267 268 269 270 272 273 274 275 275 276 276 277 277 277 278 278 278 278 278 279 279
283 281 280 278 277 276 275 274 273 271 271 271 270 270 269 269 269 269 268 267 267 267 266 265 265 265 265 265 266 266 266 265 264 263 263 263 262 262 262 262 262 262 262 262 262 261 261 261 261 261 261 261 261 261 261 262 262 262 263 263 264 264 264 265 265 266 267 268 269 271 273 274 275 276 276 276 277 277 277 277 278 278 278 278 279
282 280 279 278 276 275 274 273 272 271 271 270 270 269 269 268 268 268 268 267 267 266 265 265 264 265 264 265 265 265 265 264 263 262 262 262 262 262 261 261 261 261 261 261 261 261 261 261 261 261 261 261 261 261 261 261 261 262 262 263 263 263 264 264 264 265 265 266 267 268 269 271 273 275 276 276 276 276 277 277 277 277 277 278 278
281 279 279 277 276 275 273 272 271 270 270 270 269 269 268 268 268 267 267 267 266 266 265 264 264 264 264 264 264 265 265 264 262 262 261 261 261 261 261 261 261 261 260 260 260 260 260 260 260 260 260 260 260 260 260 261 261 261 262 262 262 263 263 263 263 264 264 265 266 266 267 268 270 273 274 275 276 276 276 277 277 277 277 277 277
280 278 278 277 275 274 273 272 271 270 270 269 269 268 268 267 267 266 266 266 266 265 264 264 263 263 263 263 264 264 264 263 262 261 261 261 261 260 260 260 260 260 260 260 260 260 260 260 260 260 260 260 260 260 260 260 261 261 261 261 262 262 262 263 263 263 264 264 265 265 266 267 268 270 271 273 275 276 276 276 276 277 277 277 277
278 277 277 276 274 273 272 271 270 269 269 269 268 268 267 267 266 265 265 265 265 265 264 263 263 262 262 262 263 263 263 262 261 261 260 260 260 260 260 259 259 259 259 259 259 259 259 259 259 259 259 259 259 260 260 260 260 260 261 261 261 261 262 262 263 263 263 264 264 265 265 266 267 268 269 271 273 275 276 276 276 276 277 277 277
277 277 276 275 274 273 272 271 270 269 268 268 267 267 267 266 265 265 265 265 265 264 263 263 262 262 262 262 262 262 262 261 261 260 260 260 259 259 259 259 259 259 259 259 259 259 259 259 259 259 259 259 259 259 259 260 260 260 260 260 261 261 261 262 262 262 263 263 264 264 265 266 267 268 269 270 271 273 275 276 276 276 276 276 276
277 277 276 274 273 272 271 271 270 269 268 267 267 266 266 266 265 264 264 264 264 263 263 262 262 261 261 262 262 261 261 261 260 260 260 259 259 259 259 259 258 258 258 258 258 258 258 258 258 258 258 259 259 259 259 259 259 259 260 260 260 260 261 261 261 262 262 263 264 265 265 266 267 268 269 270 271 273 274 276 276 276 276 276 276
276 276 275 274 273 272 271 270 269 268 267 267 266 266 266 265 265 264 264 264 263 262 262 262 261 261 261 261 261 261 260 260 260 259 259 259 259 258 258 258 258 258 258 258 258 258 258 258 258 258 258 258 258 258 258 259 259 259 259 260 260 260 260 261 261 261 262 262 263 264 265 265 266 267 268 269 271 272 273 274 275 276 276 276 276
275 275 275 274 273 272 271 270 269 268 267 266 265 265 265 265 264 264 263 263 262 262 261 261 261 261 261 261 260 260 260 260 259 259 259 258 258 258 258 258 258 257 257 257 257 257 257 257 257 257 258 258 258 258 258 258 259 259 259 259 260 260 260 260 261 261 261 262 262 263 263 264 264 265 266 267 269 271 272 273 274 275 275 275 275
274 274 274 273 272 271 270 269 268 267 266 266 265 265 265 264 264 263 263 262 262 261 261 261 261 260 260 260 260 260 259 259 259 258 258 258 258 257 257 257 257 257 257 257 257 256 257 257 257 257 257 257 257 258 258 258 258 259 259 259 259 260 260 261 261 262 262 262 263 263 263 264 264 264 265 266 267 269 270 272 273 273 274 274 274
274 273 273 272 271 270 269 268 267 267 266 265 264 264 264 264 263 263 263 262 261 261 260 260 260 260 260 260 259 259 259 258 258 258 258 257 257 257 257 257 256 256 256 256 256 256 256 256 256 257 257 257 257 257 258 258 258 259 259 259 260 261 261 262 262 263 263 264 264 264 264 264 265 265 266 266 267 268 269 270 271 272 272 273 273
274 273 272 271 271 270 269 268 267 266 265 264 264 264 264 263 263 262 262 261 261 260 260 260 260 260 259 259 259 259 258 258 258 257 257 257 257 256 256 256 256 256 256 255 255 256 256 256 256 256 256 257 257 257 258 258 259 260 260 261 262 262 263 263 264 264 264 265 265 266 265 265 266 266 266 267 267 268 269 269 270 271 271 272 272
274 272 271 270 270 269 268 267 266 266 265 264 264 263 263 263 262 262 262 261 260 260 260 259 259 259 259 259 258 258 258 257 257 257 257 256 256 256 256 255 255 255 255 255 255 255 255 256 256 256 256 257 257 257 258 259 261 262 263 263 264 264 264 265 265 265 266 266 266 266 266 267 267 267 268 268 268 269 269 270 270 271 271 271 272
273 271 270 269 269 268 267 267 266 265 264 264 263 263 263 262 262 262 261 260 260 260 259 259 259 259 258 258 258 257 257 257 257 256 256 256 256 255 255 255 255 255 255 255 255 255 255 256 256 256 256 257 257 258 259 261 263 264 265 265 265 265 266 266 266 266 267 267 267 267 267 268 268 268 268 269 269 270 270 270 271 271 272 272 272
272 270 269 269 268 268 267 266 266 265 264 263 263 263 262 262 262 261 260 260 260 259 259 259 258 258 258 258 257 257 257 257 256 256 256 255 255 255 255 255 255 255 255 255 255 255 255 256 256 256 256 257 257 259 260 262 264 265 266 266 266 267 267 267 267 267 267 268 268 268 268 268 268 269 269 269 270 270 270 271 271 271 272 272 272
271 270 269 268 268 267 267 266 265 264 264 263 263 262 262 262 261 261 260 260 259 259 259 258 258 258 257 257 257 256 256 256 256 256 255 255 255 255 255 255 254 254 254 254 255 255 255 256 256 256 256 257 258 259 260 262 264 265 267 268 268 268 268 268 268 268 268 268 268 268 268 268 268 269 269 269 270 270 271 271 271 272 272 272 272
270 269 269 268 267 266 266 265 265 264 263 263 262 262 261 261 260 260 260 259 259 258 258 258 258 257 257 257 256 256 256 256 255 255 255 255 255 254 254 254 254 254 254 254 255 255 255 256 256 256 257 257 259 260 261 263 265 266 267 268 269 269 269 268 268 268 268 268 268 268 268 268 268 269 269 269 270 270 271 271 271 272 272 272 272
270 269 268 268 267 266 265 265 264 264 263 262 262 261 261 260 260 259 259 259 258 258 258 257 257 257 257 256 256 256 256 255 255 255 255 254 254 254 254 254 254 254 254 254 255 255 255 256 256 256 257 257 259 261 261 263 265 266 268 269 269 269 269 269 269 269 269 268 268 268 268 268 268 268 269 269 270 270 271 272 272 272 272 272 272
269 269 268 267 266 265 265 264 264 263 263 262 261 261 260 260 260 259 259 258 258 258 257 257 257 257 256 256 256 255 255 255 255 254 254 254 254 254 254 254 254 254 254 254 255 255 255 256 256 257 257 258 259 261 262 264 266 267 268 269 269 270 270 270 270 269 269 269 268 268 268 268 268 268 269 269 270 271 272 272 272 272 272 272 272
269 268 267 266 265 265 264 264 264 263 262 262 261 261 260 259 259 259 258 258 257 257 257 257 256 256 256 256 255 255 255 255 254 254 254 254 254 254 254 254 254 254 254 254 254 255 255 256 256 257 257 258 259 261 262 264 266 267 269 269 270 270 270 270 270 270 269 269 268 268 268 268 268 268 269 269 270 271 272 272 273 272 272 272 272
268 267 266 266 265 264 264 264 263 263 262 261 261 260 260 259 259 258 258 258 257 257 257 256 256 256 255 255 255 255 255 254 254 254 254 254 254 253 254 253 253 253 254 254 254 254 255 256 256 257 257 258 259 261 262 264 266 268 269 270 270 270 271 271 271 270 269 269 269 268 268 268 268 268 269 270 271 272 272 273 273 273 272 272 272
268 267 266 265 265 264 264 263 263 262 262 261 260 260 259 259 258 258 258 257 257 257 256 256 256 255 255 255 255 255 254 254 254 253 253 253 253 253 253 253 253 253 254 254 254 254 255 256 256 257 258 259 260 261 262 264 266 268 269 269 270 270 271 271 271 271 270 269 269 268 268 268 269 269 269 270 271 272 272 273 273 272 272 272 272
267 267 266 265 264 264 263 263 262 262 261 261 260 259 259 258 258 258 257 257 257 256 256 256 255 255 255 255 255 254 254 254 253 253 253 253 253 253 253 253 253 253 253 254 254 254 255 256 257 257 258 259 260 261 262 264 266 267 268 269 270 270 271 271 271 271 270 269 269 269 268 268 269 269 270 271 272 272 272 273 273 272 272 272 272
267 266 265 265 264 263 263 263 262 262 261 260 260 259 258 258 257 257 257 257 257 256 255 255 255 255 255 255 255 255 254 254 253 253 253 253 253 253 253 253 253 253 253 254 254 254 255 256 257 258 259 259 260 261 262 263 265 266 267 269 269 270 270 270 270 270 270 269 269 269 269 269 269 269 270 271 272 272 273 273 273 272 272 272 272
267 266 265 264 264 263 263 262 262 261 261 260 259 259 258 258 257 257 257 257 256 256 255 255 255 255 255 255 255 255 255 254 253 253 253 253 253 253 253 253 253 253 253 254 254 254 255 256 257 258 259 260 260 261 261 263 264 265 267 268 269 270 270 270 270 270 270 270 269 269 269 269 269 270 270 271 271 272 273 273 273 273 273 273 273
266 265 265 264 263 263 262 262 262 261 261 260 259 258 258 257 257 257 257 257 256 256 255 255 255 255 255 255 255 255 255 254 254 253 252 253 253 253 252 253 253 253 253 254 254 255 255 256 257 258 259 259 260 260 261 262 263 264 266 268 268 269 269 269 269 269 270 270 270 270 269 270 270 270 271 271 271 272 272 273 273 273 273 273 273
265 265 264 263 263 262 262 262 261 261 260 260 259 258 258 257 257 258 257 256 256 256 255 255 255 255 255 255 255 255 255 255 254 253 252 252 253 253 252 253 253 253 253 253 254 255 256 257 258 258 259 259 259 260 260 261 262 264 265 267 268 268 269 268 268 268 269 270 270 270 270 270 271 271 271 272 272 272 272 273 273 273 274 274 274
265 264 264 263 263 262 261 261 261 260 260 259 259 258 257 257 258 257 257 256 256 255 255 255 255 254 255 254 254 255 255 255 254 253 252 252 252 252 252 252 253 253 253 254 254 255 256 257 258 258 259 259 259 259 260 261 262 263 265 266 267 267 268 267 266 267 268 269 270 270 270 271 271 271 272 272 272 272 272 273 273 273 274 274 274
264 264 263 263 262 262 261 261 260 260 260 259 259 258 257 257 258 257 256 256 256 255 255 255 254 254 254 254 254 254 254 254 253 253 252 252 252 252 252 252 252 253 253 254 255 255 256 257 258 258 259 259 259 259 260 260 261 263 264 265 265 266 266 266 265 266 266 267 267 267 268 268 269 270 270 271 272 272 272 272 273 273 273 273 274
264 264 263 263 262 261 260 260 260 260 260 259 259 258 258 258 257 257 256 256 255 255 255 254 254 254 254 253 253 253 253 253 253 253 252 252 252 252 252 252 252 253 254 254 255 256 257 257 258 258 259 258 258 259 259 260 261 263 264 264 265 265 266 265 264 264 264 264 264 265 266 266 267 267 268 269 270 271 271 272 272 272 273 273 273
264 263 263 262 261 261 260 260 259 260 259 259 258 258 258 258 257 257 256 256 255 255 254 254 254 253 253 253 253 252 252 252 252 252 252 252 252 252 252 252 253 253 254 255 256 256 257 258 258 258 258 258 258 259 259 260 262 263 264 264 264 264 265 264 263 263 263 262 263 264 264 264 264 264 265 265 267 268 268 269 270 271 272 272 272
263 263 262 262 261 260 260 259 259 259 259 259 258 258 258 258 257 257 256 255 255 255 254 254 254 253 253 253 252 252 252 252 252 252 252 252 252 252 252 253 254 255 255 256 256 257 257 258 258 258 258 258 258 258 259 260 262 263 263 263 263 264 264 263 262 262 261 261 261 262 262 261 261 261 262 262 263 264 265 266 267 268 270 271 271
263 262 262 261 261 260 260 259 259 259 259 258 258 258 258 258 257 257 256 255 255 255 254 254 254 253 253 253 252 252 252 251 251 251 251 252 253 253 253 254 255 255 255 256 257 257 258 258 257 257 258 258 257 258 259 261 262 262 262 262 262 263 263 262 261 260 260 259 259 260 260 260 260 260 261 261 261 261 262 263 264 265 266 267 269
263 262 262 261 261 260 260 259 259 259 258 258 258 258 258 258 258 257 256 256 255 255 254 254 253 253 253 252 252 252 251 251 251 251 250 251 252 254 255 255 255 254 255 256 257 257 257 257 257 257 257 257 257 257 259 260 261 261 261 261 261 262 262 261 259 259 258 258 258 258 259 259 259 259 259 260 260 260 261 261 262 262 263 264 265
Wind_Speed
17 23 25 27 28 29 30 32 33 33 32 32 32 32 31 30 30 30 30 30 30 30 28 27 25 23 23 20 19 19 16 17 18 18 18 18 17 17 18 18 19 18 18 18 18 18 19 18 18 17 17 18 19 20 20 21 22 23 24 24 24 24 24 23 21 19 17 17 18 19 23 26 22 18 16 18 19 17 13 11 11 13 15 15 14
16 20 22 26 27 28 30 31 32 32 31 30 31 31 31 31 31 30 30 31 31 29 26 24 21 20 19 17 17 17 15 16 17 18 20 21 20 20 20 20 20 20 20 20 19 19 19 19 18 17 17 18 19 18 19 19 20 21 23 24 25 24 23 23 22 17 10 9 10 11 15 18 14 13 16 15 12 10 10 14 18 20 18 14 12
12 15 18 23 24 27 29 29 29 29 29 30 30 31 33 32 31 29 29 30 29 28 26 23 20 19 19 17 17 17 15 16 19 20 23 24 23 23 22 21 21 21 20 20 20 20 20 20 20 19 18 18 19 19 19 19 19 20 21 23 24 23 23 23 23 17 12 10 8 5 6 8 7 7 7 7 10 16 20 22 20 15 12 12 15
10 12 15 19 21 24 25 25 27 28 30 30 30 31 32 30 28 27 27 28 28 26 25 22 20 20 20 19 20 20 19 22 24 25 26 25 24 25 24 23 22 22 20 19 20 20 20 21 21 20 19 18 19 19 19 19 19 20 21 22 22 21 20 22 22 19 16 12 6 3 2 4 5 4 4 10 16 18 15 12 10 10 14 19 20
10 11 12 16 20 21 22 23 26 28 28 28 29 28 27 27 26 26 26 26 26 25 24 23 22 23 24 24 25 24 24 25 26 26 26 24 24 25 24 23 23 23 21 20 20 20 20 20 20 20 19 18 18 18 18 18 19 19 20 22 22 20 19 20 21 20 20 17 12 7 4 3 4 4 7 9 7 7 8 10 14 17 19 19 17
10 11 12 16 18 19 21 23 25 26 25 25 26 25 24 26 26 26 26 25 25 24 24 23 22 23 25 24 23 21 20 20 21 22 23 23 23 23 22 23 24 24 22 20 21 21 20 19 20 20 20 20 19 19 18 18 18 18 18 20 21 21 21 20 21 22 23 23 21 18 15 13 9 5 5 5 4 8 14 16 16 17 17 18 21
10 11 13 15 16 18 20 22 23 23 22 23 24 24 24 27 28 28 27 26 25 24 23 22 21 24 26 21 18 16 15 16 18 18 19 19 20 21 21 22 23 22 20 19 20 21 21 22 22 23 23 23 22 21 21 20 20 19 19 19 19 20 21 20 21 23 22 22 23 24 25 24 21 13 7 6 7 9 10 12 15 18 20 23 25
8 9 12 15 16 17 18 19 21 20 22 25 25 24 26 30 30 29 27 26 24 23 22 21 22 25 25 21 17 16 14 15 17 17 17 17 19 22 23 24 22 19 18 19 19 19 20 22 23 24 26 27 26 24 25 24 22 21 20 19 19 18 19 20 22 21 19 19 21 23 25 26 26 23 18 12 8 7 7 10 15 20 22 24 23
9 9 11 14 15 16 16 15 16 19 26 29 27 24 26 31 31 29 28 25 24 22 20 22 26 26 23 19 17 15 14 15 15 16 17 20 25 29 28 24 21 20 19 18 17 18 20 23 24 26 27 28 28 27 29 29 27 25 23 21 20 19 19 19 21 21 21 21 20 21 23 23 22 22 22 17 11 9 8 7 10 13 16 20 23
9 11 12 14 14 13 13 14 15 21 29 31 28 24 26 31 31 29 27 25 24 20 19 24 27 26 21 18 16 15 15 15 16 18 21 25 31 33 29 22 21 24 22 17 19 24 26 26 25 23 23 23 25 27 30 31 31 30 29 27 25 22 20 19 20 21 21 22 22 21 20 18 15 13 15 16 14 12 10 9 9 10 11 15 21
7 10 12 12 12 12 13 15 17 22 28 31 29 25 26 30 30 29 26 25 24 18 20 27 27 25 21 17 17 16 15 16 18 21 24 28 30 29 26 22 23 27 23 20 27 31 30 29 27 23 21 21 23 25 27 28 30 31 32 32 31 27 24 22 22 22 22 23 23 23 23 21 17 14 14 16 14 11 10 8 10 13 15 16 18
6 7 9 9 11 12 14 15 15 21 27 30 28 24 25 28 28 28 23 23 23 17 21 27 26 24 21 17 17 14 13 16 21 22 25 29 28 25 23 21 24 26 22 24 31 34 32 31 30 28 26 25 25 26 27 27 27 29 30 31 31 30 28 25 24 23 22 23 23 23 25 25 25 24 21 19 19 17 13 9 9 12 13 17 19
5 6 7 9 11 12 13 13 14 18 23 25 23 20 22 24 25 25 19 19 22 19 21 25 24 23 20 17 16 12 13 18 22 24 27 28 24 21 21 21 21 22 21 23 28 33 34 32 32 31 29 26 26 27 29 29 28 28 27 27 28 28 28 25 25 26 24 25 25 24 26 27 28 28 25 23 23 22 17 12 11 11 10 15 17
5 6 7 9 10 10 11 11 12 14 16 19 18 15 19 21 21 20 16 17 22 21 22 23 23 22 19 17 14 12 15 21 24 27 29 26 21 18 19 20 19 20 20 21 25 31 33 32 32 32 29 27 26 27 28 29 30 29 27 26 25 25 25 25 26 28 29 29 28 27 28 29 29 28 27 27 25 22 19 15 11 10 12 14 14
5 6 7 9 9 9 9 9 10 12 13 17 17 14 17 19 17 16 14 17 22 23 25 25 23 22 20 17 14 14 18 22 26 30 29 24 19 18 19 19 19 19 20 23 26 28 29 30 31 30 28 28 27 27 27 28 30 28 25 24 23 22 22 24 25 26 29 30 30 30 31 31 31 29 29 31 30 27 25 22 15 8 10 11 10
4 5 7 8 8 8 8 8 10 12 12 16 17 14 16 17 14 14 14 18 20 20 24 27 23 21 20 17 15 17 20 23 29 32 28 22 19 19 20 19 19 21 22 24 26 26 28 29 29 27 27 27 26 27 27 27 27 26 24 22 21 20 21 23 23 24 26 28 28 29 30 32 32 29 30 32 33 32 30 28 23 14 11 10 9
4 5 6 6 7 7 8 8 10 13 12 15 17 13 14 15 13 13 15 18 19 18 23 28 24 21 21 18 16 18 21 24 30 30 24 20 20 20 20 20 20 22 22 23 25 27 28 28 26 25 26 26 26 27 27 26 25 24 23 22 22 22 23 23 22 23 25 26 27 28 28 31 32 30 30 31 32 33 32 31 29 24 19 13 10
5 6 6 5 6 6 8 7 10 14 12 13 15 12 13 14 12 14 15 17 18 17 22 26 23 20 20 18 17 17 20 25 29 26 20 21 22 22 21 21 22 23 23 25 27 27 27 26 25 24 24 25 26 26 26 25 24 24 23 22 23 22 23 24 23 24 26 26 27 29 29 29 30 30 31 32 32 33 32 32 31 29 27 20 13
5 5 4 4 5 5 8 7 10 16 13 11 12 11 13 14 13 14 14 15 16 15 19 23 20 18 18 18 16 14 20 27 28 23 20 22 23 22 22 23 23 24 25 26 26 26 25 25 24 23 23 24 25 25 25 24 24 24 23 22 21 21 23 25 25 24 25 25 26 29 31 31 29 29 30 32 33 34 33 33 31 30 31 29 23
3 3 3 3 4 5 7 7 11 14 11 9 10 10 12 13 14 14 14 14 15 14 18 20 18 16 17 18 16 15 22 27 24 21 21 22 22 22 23 22 23 24 26 26 26 25 25 24 23 23 24 25 25 24 24 24 23 23 22 22 22 23 24 26 26 24 23 24 25 27 30 31 30 30 31 31 32 34 35 34 33 31 31 31 29
3 2 1 3 4 4 5 6 7 9 8 9 10 10 11 12 14 15 14 14 15 15 18 19 18 17 17 18 16 17 22 24 22 21 22 21 22 22 22 23 24 25 26 25 25 25 24 24 24 24 24 24 24 24 23 23 23 23 23 24 25 25 25 26 26 25 24 23 24 27 28 29 28 30 32 32 32 34 35 35 34 32 30 30 30
2 1 1 2 2 3 4 5 7 8 9 10 11 11 11 12 15 15 14 15 16 17 19 19 19 18 18 18 17 18 21 22 23 23 23 22 23 24 24 24 25 26 25 24 25 24 24 24 24 23 23 23 23 23 23 22 23 24 25 26 25 25 26 26 26 26 25 23 24 26 28 28 27 28 32 33 33 33 33 34 34 32 30 30 30
2 0 1 2 1 3 5 6 7 9 10 11 12 12 12 14 17 17 15 16 17 18 20 19 18 18 18 18 18 18 20 21 22 23 23 24 25 25 26 24 24 25 25 24 25 24 24 23 23 22 22 23 23 23 23 23 23 25 26 27 26 25 26 27 27 27 26 25 25 27 28 27 26 27 29 31 32 33 32 32 33 33 33 31 31
1 1 1 1 2 3 5 8 8 11 13 13 14 14 14 16 17 16 16 16 17 19 19 18 18 19 19 18 18 19 20 21 22 22 23 26 26 25 25 23 23 23 23 23 23 22 22 21 21 22 22 23 23 23 24 25 25 25 27 28 27 27 27 28 28 28 27 26 27 27 28 27 26 27 29 29 30 32 32 31 29 30 33 33 32
1 2 1 1 4 5 7 9 10 13 13 12 14 14 13 14 16 16 16 16 18 20 19 18 19 19 18 18 19 20 20 22 23 24 25 27 26 24 23 21 21 22 21 21 22 21 21 21 21 22 23 23 23 23 26 27 27 26 27 29 29 28 28 28 29 29 29 29 30 31 31 30 29 30 30 30 30 30 31 30 28 26 27 28 28
2 3 1 2 5 6 7 8 8 9 10 11 13 14 13 14 15 16 16 17 19 20 19 19 19 19 18 18 19 20 21 22 23 25 25 24 23 22 21 21 21 22 22 23 23 23 23 23 24 24 24 25 26 27 28 29 29 28 28 29 30 30 30 30 31 32 33 33 33 35 36 34 33 32 33 34 33 30 29 28 29 28 26 25 25
1 3 3 3 5 6 6 7 8 9 10 12 13 13 14 15 16 17 17 18 20 20 19 19 19 18 18 18 19 20 22 22 22 23 22 21 21 21 21 23 23 24 25 27 27 27 27 27 28 28 27 28 30 31 31 31 32 33 32 34 35 34 35 36 37 40 41 41 41 41 42 41 38 35 35 36 37 34 31 28 28 27 26 27 26
1 2 4 4 5 6 7 8 10 10 11 13 14 14 15 15 16 17 17 19 20 19 19 19 18 18 18 19 20 21 22 22 21 20 21 21 23 24 25 26 26 26 28 28 28 29 30 30 30 31 31 31 32 34 36 37 38 39 38 40 41 41 43 44 45 47 47 47 46 45 45 44 42 40 38 38 37 35 32 31 30 28 26 26 27
3 3 4 4 5 7 9 10 11 11 12 14 14 14 15 15 16 16 16 18 19 18 18 18 17 18 19 19 20 21 20 20 20 20 21 24 26 28 29 29 28 29 30 30 30 30 31 32 33 34 34 35 36 38 40 40 40 39 39 40 41 42 43 44 45 46 46 46 45 43 43 42 40 41 42 41 40 38 35 33 33 31 30 29 29
4 3 3 5 7 10 11 11 12 11 12 14 14 14 15 15 15 14 17 18 18 18 19 19 19 20 20 20 20 20 20 20 21 24 27 28 29 30 32 32 32 32 32 33 33 32 32 34 36 37 38 38 39 41 42 39 37 38 39 40 39 39 39 38 38 38 38 38 39 39 40 40 40 40 41 41 42 42 41 39 38 35 33 31 30
3 3 4 5 8 10 11 12 11 11 12 14 14 14 15 15 14 15 18 20 19 19 19 19 20 20 20 19 18 20 23 25 27 29 31 32 33 33 34 34 34 34 34 34 34 33 34 35 36 37 38 39 41 42 40 38 38 40 41 40 41 42 42 40 38 37 37 35 35 36 37 38 39 40 41 42 42 43 43 43 44 43 39 36 34
4 4 4 5 9 11 11 12 12 11 13 14 14 14 14 14 14 16 19 20 19 19 19 19 20 20 18 18 19 22 27 30 32 32 32 33 34 34 35 35 34 34 35 34 34 34 34 35 35 36 38 40 42 43 40 38 40 41 41 41 43 44 42 40 38 36 36 35 34 34 35 36 38 38 39 39 39 40 42 43 45 45 44 42 41
4 4 4 6 10 11 11 12 12 11 13 14 13 13 14 15 16 17 19 19 18 19 20 21 22 21 19 20 23 27 30 32 33 33 33 33 34 34 35 34 34 34 34 34 34 34 35 35 36 36 38 40 42 43 41 39 40 42 42 43 43 41 39 39 38 36 35 35 34 33 33 34 35 34 34 35 35 36 39 41 43 43 43 43 43
4 5 6 8 11 12 12 13 12 12 14 15 16 15 15 16 18 20 20 20 21 22 22 23 23 24 24 25 28 29 31 33 33 32 33 33 33 33 34 34 33 34 34 34 34 35 36 37 37 37 39 41 42 43 41 39 41 42 43 43 43 40 37 38 39 38 37 36 35 34 31 31 32 31 32 33 34 34 35 36 37 38 39 40 40
4 7 9 11 12 13 15 14 13 14 16 17 18 17 17 19 21 21 22 22 23 23 23 24 25 26 26 27 29 30 31 33 33 32 32 33 33 33 33 34 33 34 35 35 34 35 37 39 39 38 40 41 43 43 40 39 41 43 44 44 43 40 38 38 39 39 38 37 36 34 32 31 31 31 31 32 34 34 33 33 33 35 36 36 35
7 9 10 12 13 14 16 15 14 15 17 18 18 17 18 21 21 21 22 22 22 22 23 24 25 26 27 28 29 31 32 32 33 32 33 34 34 34 34 34 35 35 36 36 35 36 37 39 40 39 39 41 43 43 41 40 41 43 45 44 41 38 38 38 39 40 38 37 36 34 33 31 31 32 32 33 35 34 32 32 32 34 34 32 31
8 10 12 13 14 15 15 14 15 17 18 17 17 17 19 21 21 21 22 22 22 23 24 24 25 26 28 29 30 31 32 33 32 32 33 34 35 35 35 34 34 35 37 37 38 38 38 38 39 38 38 39 42 43 41 40 41 43 44 44 40 38 38 37 37 38 36 35 34 33 32 31 32 32 32 33 35 35 33 31 31 32 32 27 25
9 11 12 14 15 16 15 15 16 18 18 17 17 18 19 20 21 21 22 22 23 24 24 24 26 27 29 29 29 30 31 32 32 31 33 35 35 35 34 33 32 34 36 37 38 38 37 37 37 37 37 37 39 41 40 39 40 41 43 43 40 38 37 36 34 33 32 31 32 31 30 31 31 31 32 34 34 35 33 28 27 30 26 21 21
10 12 13 15 16 17 16 17 17 19 18 17 17 19 19 20 21 21 21 22 23 23 23 24 26 27 28 29 29 30 30 30 31 31 32 33 34 34 34 33 32 33 35 36 36 36 36 37 36 35 35 35 36 39 39 37 39 41 43 43 41 37 36 36 33 28 27 27 28 29 28 29 31 31 32 33 33 34 32 26 24 24 21 19 23
11 12 14 15 17 17 17 18 18 19 18 17 17 18 19 19 20 20 21 22 23 22 23 25 26 27 27 28 29 29 29 29 30 31 31 32 32 32 32 33 33 33 34 34 34 34 35 36 35 35 35 34 34 36 38 37 38 40 43 44 41 37 35 35 33 25 21 21 23 26 26 28 29 30 31 31 31 31 27 23 23 21 20 25 28
12 14 14 15 17 17 18 19 19 19 18 17 17 17 18 19 19 20 22 22 22 22 24 25 26 27 28 29 29 29 30 30 29 29 30 31 31 30 31 32 33 33 32 32 33 33 33 35 35 34 34 33 32 33 35 37 38 40 44 45 41 38 36 34 32 26 19 18 20 24 27 27 27 27 28 29 30 29 23 18 23 24 25 28 26
14 15 15 16 17 18 19 20 20 19 18 17 16 17 19 19 20 21 22 22 22 23 24 25 27 28 28 29 30 30 30 30 29 29 29 31 31 30 30 31 32 31 31 31 32 32 32 33 35 35 34 33 33 33 33 34 37 39 43 44 41 40 40 37 33 29 22 18 21 24 26 27 25 25 26 27 28 28 22 15 19 26 28 27 22
14 16 16 16 17 18 20 21 20 19 18 17 16 18 20 20 21 22 21 21 23 24 24 25 27 28 29 29 30 30 30 30 29 28 28 30 32 31 31 31 31 30 30 31 32 32 31 31 34 36 35 34 35 35 33 33 36 40 42 42 41 40 40 38 33 30 26 20 21 23 25 26 25 24 24 24 25 26 22 17 17 22 26 27 25
15 17 16 16 17 19 20 21 21 20 19 18 17 18 20 21 22 22 21 21 23 23 24 26 28 29 29 29 29 30 30 29 29 28 28 29 31 31 32 31 30 30 30 30 32 32 30 28 30 32 34 35 35 35 34 34 36 39 40 40 40 39 38 38 34 30 28 24 21 20 22 25 25 24 24 23 23 23 22 20 20 20 20 22 23
17 18 17 16 17 19 20 22 23 21 20 19 18 18 20 23 23 21 20 21 22 23 25 27 28 28 29 29 30 29 29 29 28 27 27 29 30 30 31 31 31 31 29 28 31 31 27 26 26 28 31 34 34 35 36 37 38 38 37 37 37 36 35 35 33 31 28 25 21 20 19 19 19 18 19 20 20 21 22 21 21 19 18 17 17
17 18 18 17 18 19 21 22 24 23 21 20 20 20 21 24 23 21 20 21 21 23 25 26 27 28 28 29 29 29 28 28 28 27 26 27 28 28 29 29 30 30 28 27 27 27 25 25 26 27 28 31 33 33 35 39 40 38 34 33 34 33 33 34 33 30 28 25 23 22 20 18 16 14 12 12 14 18 20 20 19 17 16 14 14
17 18 18 17 18 19 20 22 24 24 23 22 22 23 23 23 22 20 19 20 21 23 25 26 26 27 28 28 28 28 28 28 28 28 28 27 27 26 27 27 27 28 29 27 25 24 24 25 26 27 27 28 29 30 32 37 38 35 31 31 31 30 31 33 32 30 28 26 25 24 24 22 20 17 14 11 8 9 11 12 13 14 13 12 12
18 18 18 18 18 20 21 22 24 25 24 23 24 24 23 22 21 20 19 20 21 22 24 26 26 27 27 27 27 27 27 27 27 28 28 28 27 26 26 26 26 26 27 27 25 25 26 26 26 25 25 25 25 26 29 34 35 33 30 29 28 28 29 28 27 27 26 26 27 28 30 31 30 26 23 21 18 16 13 10 6 7 8 9 10
19 18 18 18 19 21 22 23 25 26 25 25 25 25 24 22 20 19 18 19 21 22 23 25 26 26 26 27 27 27 27 26 27 28 28 28 27 24 24 26 25 23 23 26 28 28 27 25 24 23 23 23 23 25 29 34 36 33 30 28 27 27 27 26 24 23 22 24 27 29 28 29 28 25 22 23 23 22 21 19 16 10 5 3 5
19 19 18 19 20 22 23 24 26 26 25 25 26 26 25 22 20 19 18 19 21 22 24 25 25 25 26 26 27 27 26 26 26 27 28 30 30 26 22 22 23 23 23 25 27 27 25 23 23 23 23 22 24 28 32 35 35 33 30 27 26 25 25 26 24 21 20 22 22 21 21 21 21 19 18 19 20 20 20 21 22 20 15 10 5
19 19 19 20 21 22 23 25 26 26 25 26 27 27 25 22 20 18 18 19 20 21 24 25 25 25 26 26 26 26 26 26 26 26 26 27 30 31 28 24 22 22 24 25 25 25 24 24 24 25 24 24 26 29 30 33 35 33 29 27 25 24 24 25 23 19 19 20 19 17 18 18 18 18 17 18 18 17 18 19 21 22 22 20 15
Wind_Direction
86 84 83 81 79 77 74 72 69 65 61 58 54 49 46 41 38 35 29 24 21 19 17 16 14 9 5 4 359 359 360 355 355 355 351 350 349 344 342 341 339 338 338 337 338 339 337 334 332 330 328 324 319 314 310 307 305 304 303 301 299 296 294 298 300 301 303 304 308 310 310 312 313 311 305 301 299 296 293 293 299 302 299 299 299
87 80 77 76 74 72 70 67 65 62 58 54 50 46 42 39 35 31 25 22 21 20 19 18 17 9 4 3 358 359 4 2 2 359 354 353 351 347 345 342 339 338 338 338 340 342 343 342 341 339 337 335 330 324 319 315 311 309 307 303 300 296 291 293 295 294 292 295 306 309 310 314 313 311 306 300 296 293 297 300 299 298 295 293 294
85 77 73 73 71 69 67 64 63 61 57 51 46 41 37 35 33 29 23 21 20 19 18 18 15 9 8 9 4 5 8 1 357 355 354 354 354 353 351 347 343 339 336 335 334 337 342 343 343 341 339 339 337 333 328 325 321 317 313 307 302 296 291 291 290 285 276 283 300 297 312 326 313 308 300 287 302 301 296 295 292 289 289 294 298
89 80 74 72 68 66 64 63 62 58 53 47 42 38 36 35 32 27 22 19 19 18 17 17 13 10 12 11 7 4 0 355 355 357 359 359 358 358 359 357 354 349 344 341 337 336 340 342 342 338 337 337 338 337 333 330 328 324 320 313 304 294 289 290 290 283 274 274 283 286 315 314 290 311 307 291 302 300 289 288 286 285 293 298 298
92 86 77 74 70 66 64 62 60 56 51 44 41 39 37 35 30 25 22 19 20 19 17 17 15 13 11 7 2 360 357 358 359 358 358 359 357 358 360 359 0 359 357 355 353 350 348 347 344 341 341 340 340 341 338 335 332 328 325 318 307 295 287 287 287 283 275 267 259 264 285 277 267 318 316 300 297 278 270 282 284 286 292 294 293
87 88 83 79 75 70 64 60 58 55 50 43 40 40 37 31 26 23 22 20 20 20 18 19 20 17 11 5 1 359 358 360 358 354 353 353 353 355 356 355 358 1 2 3 4 1 353 349 346 345 345 343 343 344 342 342 337 333 330 321 312 303 293 284 282 284 281 270 258 253 256 263 272 298 311 296 269 265 271 276 277 280 287 288 288
86 86 83 81 76 69 63 58 57 53 47 42 38 38 33 26 23 22 21 21 21 19 19 22 21 11 7 6 2 360 356 354 352 349 349 349 350 351 349 347 349 356 359 358 360 358 347 341 340 341 340 338 339 339 337 339 336 333 331 324 317 310 298 283 278 283 283 274 266 260 256 256 260 260 262 277 287 277 260 259 267 274 281 282 284
90 86 81 79 74 69 65 59 57 50 41 37 35 34 27 21 20 20 20 20 20 20 20 21 13 4 4 6 4 3 356 348 346 347 349 349 348 345 342 341 344 351 351 346 351 353 342 334 330 330 329 328 329 329 327 329 329 328 327 325 321 314 304 289 282 281 277 273 272 268 262 256 253 250 247 252 272 284 269 262 268 274 277 276 278
88 90 85 82 76 70 67 62 56 44 36 33 33 30 21 17 18 18 18 19 18 18 18 11 3 2 4 5 3 1 354 349 349 351 351 347 345 344 343 342 344 346 345 345 346 341 332 327 325 323 322 320 320 319 317 317 318 318 319 319 317 312 306 296 286 279 273 272 272 270 266 260 253 248 246 243 245 260 270 271 272 275 273 267 271
89 91 88 85 79 71 64 59 50 36 31 29 29 26 16 14 15 15 15 15 15 15 9 1 359 3 7 5 1 356 354 355 355 352 349 345 343 344 344 343 341 341 343 340 334 333 333 334 334 330 324 320 316 312 311 311 310 310 309 307 306 305 302 298 290 283 277 273 270 267 264 258 250 245 237 233 237 245 251 262 267 271 273 268 270
97 93 91 88 77 66 55 50 43 31 27 25 25 20 13 11 11 11 12 12 14 12 358 356 360 4 6 4 360 356 357 358 353 349 347 345 342 341 341 338 337 340 340 333 332 337 341 341 341 337 329 324 319 315 313 311 309 307 305 303 301 298 296 294 289 285 282 276 270 264 261 257 250 246 233 224 228 235 242 253 252 252 263 267 266
104 94 87 79 62 50 44 42 36 27 23 21 21 16 10 9 7 8 10 9 11 6 353 356 1 2 2 2 359 356 357 354 351 349 346 343 341 337 337 334 333 337 336 331 333 339 342 341 340 338 334 330 327 324 321 318 314 310 307 303 301 297 294 291 286 283 282 278 274 267 263 260 254 253 250 238 233 236 242 253 249 243 256 263 261
92 78 67 59 51 43 38 36 31 25 20 17 17 13 8 7 5 7 10 6 6 2 353 355 358 358 357 358 355 350 349 349 349 348 344 341 338 334 333 331 329 330 330 330 330 334 338 339 337 336 334 330 327 325 324 323 321 317 312 306 302 299 294 290 284 282 280 276 275 272 267 263 259 256 256 251 245 244 243 250 255 242 246 264 264
76 68 63 55 50 45 38 35 30 23 16 12 13 11 8 7 4 6 8 2 1 0 357 356 355 354 353 352 349 342 342 344 346 344 341 339 335 329 329 326 324 323 325 325 325 329 334 335 334 333 332 327 324 323 322 322 322 320 316 309 305 300 295 291 287 284 281 277 274 272 268 265 262 259 256 254 251 246 241 244 252 243 239 254 264
80 75 73 62 52 48 40 36 28 19 12 10 10 9 5 4 2 3 3 357 356 358 359 358 354 351 350 349 344 335 335 339 339 339 339 338 331 325 324 323 322 320 320 320 322 326 328 329 330 330 328 325 322 320 318 318 319 318 313 307 303 299 295 292 291 288 284 281 276 271 268 265 262 260 257 255 253 249 247 247 245 242 243 245 250
100 88 83 70 57 49 40 36 25 14 10 9 9 8 2 357 356 358 357 353 352 353 355 356 354 350 346 344 337 328 328 332 334 335 337 336 328 323 322 320 319 318 317 319 322 324 323 324 325 325 325 323 319 317 316 314 316 314 309 302 298 297 296 293 292 290 287 286 282 275 269 265 263 260 258 256 254 251 251 249 243 236 243 253 251
104 91 89 73 60 51 37 37 25 12 7 7 7 5 357 353 351 351 349 351 351 350 351 353 351 346 341 340 333 324 323 328 332 334 333 329 326 324 321 317 317 317 317 318 320 321 322 323 320 318 321 320 316 315 313 311 310 308 304 299 296 296 295 293 293 291 289 288 286 280 273 268 266 263 260 257 255 253 250 248 243 236 236 246 257
103 90 92 75 65 54 35 35 24 10 4 1 0 356 353 353 350 348 347 348 349 346 347 350 347 341 337 334 328 318 318 326 331 331 327 325 324 323 320 317 317 318 318 319 319 319 321 321 315 311 313 313 312 313 311 308 306 303 299 296 295 295 294 293 293 292 292 291 287 284 280 274 271 267 263 259 256 254 249 246 243 238 235 235 243
114 94 92 72 66 54 35 29 10 4 358 352 351 347 351 354 350 347 343 341 342 339 341 344 341 334 330 329 323 311 313 324 329 329 325 324 323 321 319 317 317 319 319 319 318 316 315 315 311 308 307 307 308 308 307 305 303 299 297 295 293 294 292 291 291 291 291 291 289 285 282 279 276 272 268 263 258 254 251 248 243 237 234 233 236
111 95 98 75 66 47 29 16 358 357 352 343 345 345 349 353 350 346 339 335 336 333 334 338 336 330 326 329 326 310 313 323 329 327 323 320 319 318 317 316 315 316 318 317 315 313 311 310 309 307 305 305 305 304 303 302 299 296 294 293 293 293 291 289 288 287 287 288 287 285 283 280 278 275 271 267 261 256 252 249 245 239 235 233 234
105 90 102 83 62 34 13 359 351 353 351 346 347 344 344 348 347 343 336 334 332 331 332 333 334 332 328 330 328 315 316 324 327 325 321 319 318 316 314 315 315 315 316 314 312 311 310 309 307 306 304 303 302 301 300 298 296 294 293 292 293 292 289 287 288 287 284 284 284 284 283 281 279 277 273 270 267 260 253 247 243 239 236 233 231
125 81 118 109 56 8 350 347 352 354 354 351 345 341 337 339 343 341 335 333 330 328 330 330 330 330 327 326 325 320 320 324 326 326 324 322 319 318 317 316 316 318 316 313 311 310 309 307 305 302 301 301 299 299 298 296 294 293 293 293 292 290 288 287 287 287 284 284 284 282 282 283 282 279 274 271 269 265 256 245 240 236 234 233 230
142 273 163 139 1 348 347 347 354 354 352 349 342 338 333 332 337 337 332 330 328 327 328 327 325 326 326 325 321 320 320 321 323 323 323 322 320 320 320 315 312 315 315 313 312 309 307 306 303 299 299 299 299 298 297 297 294 292 292 292 290 288 287 285 284 285 285 285 284 282 282 283 283 281 277 272 268 266 260 249 240 234 233 233 231
134 335 152 128 326 341 352 348 351 350 347 344 339 334 327 327 331 331 326 325 326 327 326 323 323 325 326 325 322 320 319 320 321 320 319 322 321 318 319 315 310 311 311 311 311 308 305 304 301 300 299 298 298 298 297 296 294 291 290 289 289 286 283 283 282 283 285 286 284 283 282 284 284 282 279 275 267 263 261 255 246 239 235 235 235
43 0 154 1 338 345 352 347 345 341 338 335 330 325 319 319 323 323 321 321 324 327 326 323 324 325 324 323 324 323 322 322 322 320 320 322 321 317 314 312 309 309 308 308 308 307 305 302 300 300 299 298 298 297 297 296 293 290 287 286 287 285 283 282 281 281 281 282 282 281 280 281 282 282 280 278 274 268 263 259 253 246 239 237 237
21 354 326 337 339 336 335 333 327 325 325 323 321 317 314 315 317 319 319 319 322 326 326 324 325 324 321 321 323 324 323 322 321 320 319 318 317 314 311 311 310 309 308 308 307 307 305 302 301 300 299 298 298 296 295 294 291 289 286 284 283 282 280 279 278 277 278 277 276 275 276 276 274 275 276 276 278 276 272 265 259 253 247 241 239
15 342 324 312 314 310 310 310 308 310 316 320 319 315 314 314 315 317 318 319 324 326 325 324 324 323 321 321 322 322 322 321 319 318 316 314 313 311 310 311 310 308 308 308 307 307 305 303 302 301 299 298 298 296 294 292 291 290 287 285 283 281 280 281 280 280 280 280 278 275 275 275 271 269 269 270 273 275 274 271 266 261 256 249 244
251 305 309 294 290 298 301 301 304 309 316 320 319 315 314 313 314 315 316 319 324 324 322 322 322 321 320 320 320 320 319 318 316 314 314 314 314 315 313 311 310 308 307 307 306 305 305 303 301 300 300 299 299 298 297 296 296 295 291 288 287 285 283 282 282 282 282 282 282 278 275 273 271 268 267 266 267 268 268 269 266 264 262 257 251
263 275 294 292 293 302 303 300 302 309 316 320 319 314 312 313 312 312 314 318 321 320 319 319 318 316 317 318 318 317 316 316 315 314 314 315 315 316 315 313 310 310 309 308 307 306 304 304 304 303 304 304 303 301 301 298 295 293 290 287 287 285 283 281 279 280 279 278 279 278 274 271 269 268 266 264 262 261 261 261 260 259 257 255 253
260 266 286 289 298 303 301 298 301 307 315 317 315 311 310 310 309 309 314 318 319 318 318 317 315 315 316 316 316 316 315 316 316 317 317 317 316 316 315 314 314 313 313 313 312 310 308 308 308 308 308 307 305 304 303 298 291 288 287 285 284 282 281 279 277 277 276 275 274 274 273 270 267 266 266 264 261 260 259 258 257 254 249 246 246
256 269 282 285 296 299 297 298 300 305 314 316 312 309 308 308 308 310 315 319 319 318 316 315 314 315 316 315 314 316 317 319 319 319 319 319 319 318 317 317 317 316 317 317 315 313 311 311 310 309 309 308 306 306 304 298 294 293 292 290 287 285 284 281 278 275 274 273 272 271 271 271 270 270 270 268 266 264 261 260 258 255 249 243 239
263 267 273 285 298 300 297 297 299 303 312 315 311 308 306 307 309 311 314 317 318 317 315 313 313 314 314 313 315 317 319 320 321 321 320 320 320 319 319 319 319 319 320 318 316 314 313 313 312 310 309 309 309 310 307 300 298 300 301 299 295 291 288 284 278 273 271 270 271 271 271 272 272 273 273 272 270 267 264 261 259 257 254 248 241
262 267 273 288 299 301 298 297 299 304 311 314 311 307 305 307 310 311 313 315 315 315 314 313 314 314 313 315 319 320 320 320 321 321 320 320 320 319 320 321 320 321 320 317 316 315 314 314 313 311 311 310 311 314 312 304 303 305 307 307 302 297 292 286 280 275 270 268 268 269 270 270 270 271 272 273 272 269 266 261 257 256 256 254 249
256 272 285 294 299 300 299 299 301 306 312 315 314 310 306 308 311 313 315 315 315 315 315 315 316 316 316 318 320 320 319 319 320 321 320 320 320 319 320 321 321 320 319 317 317 317 316 316 315 314 313 312 314 317 314 307 306 309 311 311 307 302 296 290 284 277 271 268 266 266 267 268 268 266 266 269 271 270 266 260 254 252 253 253 253
275 286 291 294 295 298 300 299 299 306 313 316 315 313 309 310 312 314 314 315 315 315 315 316 316 317 317 319 319 319 319 319 320 320 320 320 320 319 320 322 321 320 319 318 317 317 317 317 317 317 316 315 317 320 315 309 309 313 314 313 309 305 299 293 285 278 271 267 266 265 264 264 265 264 263 264 267 267 264 258 251 248 247 248 251
280 286 287 288 291 296 298 296 297 305 312 314 314 312 309 309 312 312 312 314 315 313 314 315 316 316 317 319 319 319 318 318 320 320 320 321 321 320 321 323 322 321 321 320 319 319 318 318 319 320 318 316 319 322 318 312 313 314 313 313 311 306 300 293 285 278 270 266 265 264 261 261 262 262 263 265 265 264 262 253 246 245 244 244 246
277 282 282 287 293 297 298 296 298 305 312 314 312 311 309 309 311 311 313 314 313 313 315 316 315 315 317 318 319 319 318 319 320 321 320 321 321 320 322 324 323 321 321 321 320 320 320 319 319 320 319 317 319 322 320 315 314 314 314 316 315 310 305 297 287 277 268 264 264 262 259 260 261 262 265 267 266 264 262 252 240 238 240 239 239
281 285 286 291 298 302 302 300 300 304 310 313 311 310 310 309 309 311 313 313 312 313 315 315 314 315 317 318 319 319 318 319 320 320 319 320 320 320 321 323 321 319 318 319 320 319 319 320 319 318 319 316 316 320 319 315 316 317 318 320 319 315 313 310 299 280 266 261 262 262 259 258 259 262 264 264 265 264 263 254 239 232 232 231 231
287 288 290 295 301 303 302 300 300 304 308 311 309 310 309 306 307 310 310 309 310 312 313 312 313 314 316 318 318 318 318 318 318 319 319 319 319 319 321 322 320 318 318 318 320 318 318 320 321 320 321 318 317 320 321 318 319 321 321 322 323 321 322 323 313 288 265 260 262 262 261 260 259 261 263 264 266 267 263 253 236 226 221 225 231
290 289 292 297 300 301 298 297 299 301 305 307 307 308 305 303 305 306 304 306 309 310 311 312 313 315 316 317 319 318 318 318 318 318 319 319 318 319 320 321 320 320 319 318 320 319 317 320 322 322 322 322 321 322 323 321 322 323 324 325 327 328 328 331 325 302 269 259 263 263 264 265 266 267 267 269 272 274 269 249 227 215 214 226 232
291 291 294 297 297 297 295 295 297 299 301 303 306 305 301 301 303 302 302 308 311 311 312 314 315 316 317 319 321 321 320 320 320 320 320 320 320 319 319 320 320 321 321 319 319 321 319 320 323 325 325 326 326 325 324 322 323 325 327 328 330 331 334 338 335 318 285 258 261 267 269 270 272 273 272 272 274 281 280 248 218 214 223 230 230
291 292 295 296 295 295 294 294 297 299 299 301 303 301 301 302 301 301 307 314 315 314 314 315 315 316 318 321 324 324 323 323 323 323 322 321 322 321 320 321 321 321 321 320 320 322 321 321 325 327 328 329 329 328 326 324 324 327 329 331 332 334 339 344 340 329 311 278 264 269 275 277 277 275 274 272 272 279 286 263 224 222 229 229 225
292 293 294 295 294 293 292 294 297 297 297 300 300 300 302 301 300 305 314 316 315 316 316 315 315 317 319 323 325 326 326 326 326 326 324 321 323 323 323 324 324 322 322 322 323 324 323 322 325 327 329 330 331 331 329 325 326 329 331 333 335 337 343 346 339 330 327 310 283 274 277 282 281 276 273 273 272 275 282 277 254 239 232 225 219
292 293 294 294 292 291 293 295 296 297 297 299 299 300 300 299 301 310 316 314 314 317 315 314 316 318 320 323 325 326 327 327 328 328 325 322 324 325 324 325 325 323 322 322 323 325 324 322 323 326 328 329 330 331 329 327 328 331 333 336 338 339 345 347 340 330 328 324 309 294 289 288 284 274 269 270 272 273 275 274 269 261 250 237 221
293 293 294 294 292 293 294 294 296 298 298 299 301 300 297 298 306 313 314 313 315 315 313 313 315 317 320 322 323 324 327 328 328 328 324 322 324 324 323 323 324 323 321 321 322 323 321 320 322 324 325 328 330 330 329 330 332 333 334 338 340 340 344 348 344 337 335 335 332 329 324 318 307 291 280 275 274 273 273 272 270 268 268 260 232
292 293 293 293 293 294 294 293 296 299 300 301 304 301 297 301 308 312 311 312 313 312 310 311 313 315 319 321 321 323 325 326 327 326 323 322 323 321 319 320 321 320 319 318 320 321 319 320 323 323 323 326 329 328 328 330 334 335 336 340 342 342 345 348 347 347 351 355 355 358 1 356 349 342 330 309 290 280 276 274 272 271 272 267 244
290 291 292 292 292 292 291 291 293 298 301 303 304 303 302 305 308 309 310 311 309 308 309 310 311 315 319 320 320 321 322 323 325 325 324 323 323 321 318 316 316 317 316 316 317 318 318 320 321 323 325 325 326 328 328 329 332 336 339 343 344 342 344 348 348 349 358 7 11 18 27 29 26 24 20 9 346 318 300 287 279 276 274 264 250
289 290 290 288 288 289 289 289 291 296 300 302 303 304 306 307 306 307 309 308 306 307 308 309 312 315 317 320 320 319 319 320 321 323 323 321 321 321 318 315 314 313 312 312 313 314 315 318 320 323 326 326 326 328 325 322 326 336 344 348 347 343 344 350 348 343 352 8 19 25 29 31 31 30 26 25 27 27 22 13 340 296 278 263 256
289 290 288 286 286 288 288 287 290 295 299 301 302 305 308 307 306 307 307 305 305 307 308 308 311 314 316 319 319 318 318 319 318 320 322 321 320 318 313 311 313 312 307 307 310 312 316 323 325 325 327 328 326 325 322 320 328 341 350 352 349 344 345 352 349 343 352 8 17 21 20 18 18 17 14 15 18 19 22 27 28 21 359 296 269
288 289 286 285 286 288 288 288 291 295 298 300 302 305 308 308 307 306 306 304 304 306 306 307 310 313 315 317 317 316 317 318 317 318 320 321 323 322 315 308 308 310 310 311 313 317 324 333 333 329 329 328 325 324 324 326 335 347 353 355 351 346 349 355 352 353 5 11 11 11 10 6 5 6 6 6 6 6 10 16 22 27 29 28 18
287 286 284 284 287 290 289 290 294 297 299 300 302 305 307 309 309 307 303 302 302 303 303 305 308 311 313 315 314 314 315 315 316 317 317 318 321 325 326 324 318 314 315 319 322 326 332 338 337 333 331 331 331 331 331 333 341 349 355 356 353 350 355 1 0 5 16 15 9 7 6 3 3 4 4 2 360 0 3 4 8 17 22 25 28